TimeMST,TemperatureF,Dew PointF,Humidity,Sea Level PressureIn,VisibilityMPH,Wind Direction,Wind SpeedMPH,Gust SpeedMPH,PrecipitationIn,Events,Conditions,WindDirDegrees,DateUTC
12:53 AM,36.0,12.9,39,29.88,10.0,Calm,Calm,-,N/A,,Clear,0,2013-12-02 07:53:00
1:53 AM,33.1,15.1,48,29.88,10.0,North,3.5,-,N/A,,Clear,360,2013-12-02 08:53:00
2:53 AM,33.1,15.1,48,29.88,10.0,NE,4.6,-,N/A,,Clear,50,2013-12-02 09:53:00
3:53 AM,37.0,14.0,39,29.86,10.0,NE,5.8,-,N/A,,Clear,50,2013-12-02 10:53:00
4:53 AM,41.0,18.0,40,29.89,10.0,NE,3.5,-,N/A,,Clear,40,2013-12-02 11:53:00
5:53 AM,30.9,18.0,59,29.94,10.0,Calm,Calm,-,N/A,,Clear,0,2013-12-02 12:53:00
6:53 AM,32.0,15.1,50,29.93,10.0,SSW,3.5,-,N/A,,Clear,200,2013-12-02 13:53:00
7:53 AM,37.0,19.9,50,29.91,10.0,Calm,Calm,-,N/A,,Clear,0,2013-12-02 14:53:00
8:53 AM,45.0,21.0,39,29.86,10.0,Calm,Calm,-,N/A,,Clear,0,2013-12-02 15:53:00
9:53 AM,48.9,25.0,39,29.83,10.0,SSW,4.6,-,N/A,,Clear,200,2013-12-02 16:53:00
10:53 AM,50.0,26.1,39,29.79,10.0,SSE,5.8,-,N/A,,Clear,150,2013-12-02 17:53:00
11:53 AM,54.0,28.0,37,29.74,10.0,South,11.5,-,N/A,,Clear,170,2013-12-02 18:53:00
12:53 PM,57.0,27.0,32,29.70,10.0,South,12.7,-,N/A,,Clear,190,2013-12-02 19:53:00
1:53 PM,60.1,15.1,17,29.67,10.0,WNW,24.2,31.1,N/A,,Clear,290,2013-12-02 20:53:00
2:53 PM,57.9,14.0,18,29.66,10.0,West,29.9,38.0,N/A,,Clear,270,2013-12-02 21:53:00
3:53 PM,55.0,14.0,20,29.66,10.0,WNW,33.4,46.0,N/A,,Clear,290,2013-12-02 22:53:00
4:53 PM,51.1,14.0,23,29.65,10.0,West,25.3,32.2,N/A,,Clear,270,2013-12-02 23:53:00
5:53 PM,51.1,12.0,21,29.71,10.0,WNW,24.2,35.7,N/A,,Clear,290,2013-12-03 00:53:00
6:53 PM,46.9,12.9,25,29.72,10.0,West,10.4,21.9,N/A,,Clear,280,2013-12-03 01:53:00
7:53 PM,48.0,10.9,22,29.68,10.0,NW,10.4,-,N/A,,Clear,320,2013-12-03 02:53:00
8:53 PM,46.0,10.9,24,29.64,10.0,NW,9.2,-,N/A,,Clear,320,2013-12-03 03:53:00
9:53 PM,45.0,9.0,23,29.62,10.0,South,5.8,-,N/A,,Clear,170,2013-12-03 04:53:00
10:53 PM,42.1,12.9,31,29.61,10.0,SSE,9.2,-,N/A,,Clear,160,2013-12-03 05:53:00
11:53 PM,46.0,10.0,23,29.55,10.0,NW,9.2,-,N/A,,Clear,320,2013-12-03 06:53:00